Find Starlink 37123

NORAD ID: 68275 Int'l Des: 2026-055 Owner: SPXS Country: US Constellation: starlink operational
LEOCIRCULAR

現在のビュー

3D地球を読み込み中...

About Starlink 37123

Starlink 37123 (NORAD 68275) is a starlink constellation satellite (v2 mini) launched Mar 19, 2026 by SPXS of US. It operates in LEO, CIRCULAR orbit with a mass of 575.00 kg.

Starlink 37123について

説明を読み込み中...

次回通過

Passes for default location (London). Set your location on the main map for personalized predictions.

高度履歴

Loading altitude history...

軌道要素

1 68275U 26055P 26168.42532368 .00013543 00000-0 41103-3 0 9990
2 68275 53.1566 214.3880 0001172 68.2734 291.8393 15.34415214 15228
Epoch: Jun 17, 2026 • Age: 25 hours

現在のステータス

高度 476.4 km
速度 7.63 km/s
衛星直下点 -40.57°S, 98.45°E
打ち上げ日 Mar 19, 2026
運用期間 0.2 years
タイプ internet

技術仕様

分類 Payload
質量 575.00 kg
乾燥質量 530.00 kg
総質量 575.00 kg
長さ 0.30 m
直径 4.10 m
スパン 29.00 m
形状 Box + pan
製造者 SPXS
バスタイプ Starlink V2MO
フェーズステータス In Orbit
所有者/国 SPXS/US

Most Searched